Flag for French Polynesia Weather past 2 weeks in Gambier Islands, French Polynesia

Now
66 °F

Mild.


Feels Like: 66 °F
Forecast: 67 / 72 °F
Wind: 17 mph from Southeast

Location: Rikitea

Current Time: Sep 3, 2015 at 8:58:39 PM

Latest Report: Sep 3, 2015 at 8:00 PM


Visibility: N/A

Pressure: 30.11 "Hg

Humidity: 64%

Dew point: 53 °F

Location of Gambier IslandsLocation

Historic Weather in Gambier Islands — Graph

°F

Gambier Islands temperature yesterday

Maximum temperature yesterday: 72 °F (at 12:00 AM)
Minimum temperature yesterday: 64 °F (at 9:00 PM)
Average temperature yesterday: 67 °F

Past Weeks' High & Low Weather Summary

 TemperatureHumidityPressure
High76 °F (Aug 30, 11:00 AM)100% (Aug 19, 8:00 PM)30.24 "Hg (Aug 19, 8:00 PM)
Low61 °F (Aug 26, 5:00 AM)52% (Aug 22, 3:00 PM)29.80 "Hg (Aug 19, 8:00 PM)
Average68 °F78%30.05 "Hg
* Reported Aug 19 8:00 PM — Sep 3 7:00 PM, Gambier Islands, Weather by CustomWeather, © 2015

Note: Actual official high and low records may vary slightly from our data, if they occured in-between our weather recording intervals... More about our weather records

Advertising

Gambier Islands weather history for previous 24 hours

 ConditionsComfort  
Time TempWeatherWind HumidityBarometerVisibility
7:00 PM
Thu, Sep 3
66 °FMild.17 mph65%30.10 "HgN/A
6:00 PM65 °FMild.13 mph64%30.09 "HgN/A
5:00 PM65 °FPassing clouds.14 mph65%30.08 "Hg25 mi
4:00 PM66 °FPassing clouds.12 mph61%30.07 "Hg25 mi
3:00 PM67 °FPassing clouds.10 mph58%30.07 "Hg25 mi
2:00 PM67 °FMild.12 mph52%30.08 "HgN/A
1:00 PM67 °FPassing clouds.12 mph54%30.10 "Hg25 mi
12:00 PM66 °FScattered clouds.13 mph61%30.12 "Hg19 mi
11:00 AM67 °FPartly sunny.15 mph63%30.14 "Hg19 mi
10:00 AM66 °FScattered clouds.14 mph65%30.14 "Hg19 mi
9:00 AM67 °FScattered clouds.15 mph69%30.13 "Hg16 mi
8:00 AM66 °FPassing clouds.15 mph67%30.11 "Hg16 mi
7:00 AM65 °FMild.15 mph67%30.10 "HgN/A
6:00 AM65 °FPassing clouds.16 mph73%30.07 "Hg16 mi
5:00 AM64 °FMild.13 mph68%30.05 "HgN/A
4:00 AM64 °FMild.12 mph72%30.04 "HgN/A
3:00 AM64 °FMild.12 mph70%30.06 "HgN/A
2:00 AM64 °FMild.12 mph69%30.06 "HgN/A
1:00 AM64 °FMild.12 mph70%30.07 "HgN/A
12:00 AM63 °FMild.12 mph71%30.08 "HgN/A
11:00 PM
Wed, Sep 2
64 °FMild.13 mph73%30.08 "HgN/A
10:00 PM64 °FMild.12 mph77%30.09 "HgN/A
9:00 PM64 °FMild.14 mph77%30.08 "HgN/A
8:00 PM65 °FMild.14 mph78%30.06 "HgN/A
Weather by CustomWeather, © 2015

See weather overviewHow to use our weather pages